Vertical_Velocity
-1 -1 1 -1 -4 0 1 1 -5 -1 -3 -0 -1 2 6 -1 -3 -4 -2 -3 -1 5 -0 -3 2 4 -1 3 -2 5 -1 2 -3 -0 1 8 1 3 -4 2 1 -6 2 1 1 -0 -3
0 -2 -4 -1 -1 1 3 -0 -3 0 -1 -2 -2 0 1 -1 -2 2 -1 -3 -7 -0 -1 1 -2 -5 3 -13 4 3 3 2 -1 1 2 5 4 5 -5 1 -1 -2 0 1 0 2 -4
-0 0 -1 -0 -1 1 -1 3 -7 5 -1 0 1 -5 1 3 -4 -4 1 3 -6 -7 2 -2 -0 -3 -5 -5 -1 1 5 -0 -1 1 4 1 5 6 -4 5 1 -0 -4 -1 4 -3 -0
3 -0 1 1 -5 2 -1 4 -4 1 1 0 -0 6 -4 -5 -1 0 1 -0 -2 4 -4 -2 3 -8 -13 -1 6 -1 4 -2 -2 4 7 3 3 7 -1 1 -0 -1 0 3 3 4 1
-1 3 -1 -0 -8 -0 -0 3 -5 2 1 -1 1 -2 7 -1 -8 -2 2 -1 -1 3 -2 -4 1 -4 -17 -11 -1 -0 6 1 -5 3 5 3 3 6 4 3 5 0 -2 -2 3 -2 6
-3 0 1 -1 -5 2 1 0 -2 2 -1 2 -1 1 -3 -10 7 -11 -5 4 -1 1 -3 -5 -1 1 -7 -7 10 6 3 8 0 9 6 -0 5 4 1 -2 -18 -11 -6 -4 -6 -5 5
-5 -1 1 2 1 -2 -2 3 1 2 -4 -1 2 5 -4 -4 -7 -4 -2 13 1 -0 -3 -1 -2 -4 4 -3 -2 10 4 1 -2 7 -7 5 0 -25 4 6 7 4 -0 -2 1 4 1
1 -9 4 4 -2 -0 3 -0 -2 -1 1 2 0 -1 -3 -6 4 -0 -2 -7 2 -9 -33 12 1 -25 9 4 -4 8 2 -0 -1 -0 10 11 -24 4 8 5 3 2 1 -5 -1 -0 7
3 2 -4 1 4 -2 0 2 4 -4 0 0 1 -4 0 -2 -8 2 -0 1 -6 -3 -6 -3 -3 -1 7 5 -10 9 -1 5 -2 5 5 -3 -10 10 -1 3 -0 2 -6 -1 -5 4 0
1 4 -4 -2 2 -1 1 1 -1 4 1 -7 9 -4 3 -3 -2 0 -0 -3 -1 -3 -8 -11 -2 4 3 2 -13 18 6 5 -1 -4 8 7 11 4 1 -3 11 2 14 3 5 7 -2
-4 1 -1 0 -1 -7 6 -0 -5 4 5 -6 3 1 -1 -5 0 -1 -0 1 -1 -4 1 -1 -3 -1 0 5 2 8 11 10 -6 -3 5 -10 -3 -0 5 -9 4 -12 2 1 9 5 5
-0 -0 -5 1 2 -2 -4 1 -0 -1 2 -1 3 2 -4 -3 -3 -0 -2 2 -1 -1 -12 5 5 6 -4 2 6 5 -1 11 10 9 1 7 4 7 -9 11 1 2 4 4 5 4 4
-2 -1 -2 -2 0 2 -3 2 -0 -0 1 0 2 0 -1 -5 2 -3 1 2 1 -2 2 4 -3 3 1 -0 2 2 5 -5 -4 2 1 1 -1 4 3 6 9 2 4 -0 1 4 -6
0 0 -1 -3 -3 3 -3 2 2 1 1 0 1 -1 1 -2 -0 -0 3 4 7 1 -0 -3 -2 3 4 -2 6 2 2 3 3 4 4 -6 4 0 -5 -3 -16 -8 3 -5 -3 -1 -2
-1 -0 0 -3 0 -1 -0 0 2 1 1 -0 -1 1 -1 2 1 1 5 2 -2 -5 -1 -3 4 1 2 5 4 -0 5 2 4 6 1 -4 -5 2 -4 4 -0 -2 1 -11 5 -2 1
0 1 1 -1 0 -0 -0 0 0 2 2 -0 2 0 -1 0 4 4 5 -4 -5 3 -2 -2 0 2 2 0 1 5 7 7 4 -3 8 5 2 1 6 9 18 5 3 1 5 1 -0
0 -2 -0 1 2 -0 -0 -1 0 3 4 2 -2 -4 -7 4 7 20 -2 -5 -8 -4 1 -0 0 1 -0 -3 2 3 5 6 6 4 7 5 1 7 5 2 -5 -1 1 6 3 8 0
-1 1 -0 2 1 1 -1 -1 0 4 5 1 -1 -2 -4 8 13 15 2 -6 -3 -3 -0 -2 -4 1 1 -3 -1 -1 2 2 -6 -0 3 6 -0 -7 -5 2 5 9 9 6 10 -4 1
1 2 0 0 0 -0 0 0 4 8 3 7 -4 -4 -5 15 2 -1 14 -6 -8 1 3 2 -1 5 1 -2 -9 -1 1 2 5 1 -7 -2 -2 -1 2 4 2 7 1 -1 4 9 -8
-3 -0 1 -0 1 0 1 3 4 3 5 5 5 -6 4 24 -6 5 1 -6 -5 -3 2 -2 -4 5 1 -2 -1 -0 -4 -2 -1 4 1 0 -2 -3 -4 -0 3 1 1 3 3 0 -7
2 1 -2 -1 1 2 1 2 3 -0 8 4 -0 -16 -13 3 -23 16 11 3 -2 -6 -2 3 -3 1 -2 -0 -1 -9 6 0 -0 3 2 2 -1 -4 -4 -4 1 -3 -4 -1 2 3 7
0 2 2 2 1 1 1 2 5 2 14 0 -12 3 6 -3 7 -3 5 -7 -8 -3 -5 -4 -3 -0 2 -12 -4 -5 4 7 -3 6 3 5 1 0 -6 -6 -1 -3 -0 -4 1 -2 5
1 1 1 2 2 2 2 1 -2 7 5 -4 4 1 19 -6 -0 28 -18 -9 -12 2 -2 -3 2 2 -6 2 1 -6 -3 2 -6 -3 3 -2 2 1 -1 -1 0 1 -13 -5 -4 -0 7
1 1 0 1 0 0 2 5 3 3 -1 2 1 15 10 -19 21 -15 6 4 -6 -13 0 -3 -11 -1 3 -3 -2 2 -2 -1 -3 1 1 -1 1 1 0 1 2 -2 -1 -3 2 -5 4
-0 0 -0 1 2 1 1 0 2 2 2 -2 7 2 3 -13 -7 3 7 -4 3 0 -10 -10 3 9 2 4 -0 -1 -1 1 -6 -0 2 -2 7 -3 1 -1 -9 -25 -5 -2 7 -6 -4
-0 -0 -0 0 1 3 4 5 9 0 3 11 -1 3 18 10 -28 1 -3 15 -3 -2 1 -5 18 -5 8 2 5 -1 -2 -0 2 3 2 5 5 8 4 -0 -1 -3 5 -4 -8 -11 0
1 1 0 0 1 3 -0 4 5 5 2 5 -6 -1 8 11 -0 -7 -9 -12 6 1 -3 3 -1 4 11 -1 2 0 -5 -3 -1 0 2 5 8 -5 5 -2 -7 -10 3 4 -3 5 -2
-2 -0 1 -0 1 0 -0 -0 8 5 6 2 -4 -2 1 4 -11 0 -0 -6 3 -5 -3 -2 8 0 11 7 0 -2 -1 -6 -3 -3 1 -6 -3 -2 -2 2 -11 6 2 5 -1 2 5
-2 3 -1 -1 1 0 -0 -1 4 8 6 11 5 -0 7 1 9 5 3 5 -5 1 14 -10 1 1 7 4 -0 -5 -7 -2 -3 -4 0 -2 -19 -10 -7 -11 7 4 8 -1 -7 -4 5
Height
3098 3098 3097 3096 3095 3094 3094 3093 3093 3093 3093 3092 3092 3092 3092 3092 3092 3090 3089 3088 3088 3086 3087 3086 3088 3091 3094 3095 3099 3098 3099 3099 3101 3102 3103 3104 3103 3105 3107 3108 3109 3108 3109 3109 3110 3109 3110
3092 3091 3090 3089 3089 3089 3088 3087 3088 3087 3087 3087 3087 3086 3086 3085 3086 3086 3086 3083 3081 3081 3081 3079 3079 3083 3085 3088 3092 3093 3094 3094 3097 3099 3099 3101 3101 3102 3103 3103 3104 3104 3105 3105 3105 3106 3106
3085 3084 3084 3083 3083 3083 3082 3082 3082 3082 3081 3082 3081 3081 3080 3079 3080 3079 3079 3078 3077 3075 3074 3074 3072 3073 3073 3084 3084 3085 3087 3089 3091 3092 3094 3096 3098 3098 3098 3100 3100 3101 3101 3100 3100 3101 3100
3079 3079 3079 3078 3078 3077 3076 3076 3076 3076 3075 3075 3074 3075 3074 3072 3073 3072 3072 3072 3069 3068 3069 3068 3067 3066 3062 3075 3075 3078 3077 3083 3085 3085 3088 3091 3091 3092 3093 3096 3095 3097 3097 3096 3097 3097 3096
3073 3073 3072 3072 3072 3071 3070 3070 3070 3070 3069 3069 3068 3068 3067 3067 3067 3065 3066 3065 3062 3060 3061 3062 3060 3061 3057 3064 3066 3069 3070 3075 3078 3079 3082 3084 3085 3086 3088 3090 3093 3092 3092 3092 3094 3094 3093
3066 3066 3066 3065 3065 3064 3064 3064 3065 3063 3063 3063 3062 3061 3061 3061 3061 3060 3059 3058 3056 3053 3052 3054 3053 3058 3057 3060 3059 3059 3061 3064 3069 3073 3075 3079 3078 3079 3080 3083 3082 3084 3087 3088 3089 3091 3089
3059 3058 3058 3058 3058 3058 3058 3058 3058 3057 3057 3057 3056 3055 3056 3056 3055 3054 3053 3052 3052 3048 3044 3048 3049 3049 3050 3053 3056 3054 3055 3057 3060 3065 3067 3070 3069 3066 3070 3076 3080 3082 3084 3084 3086 3086 3086
3050 3050 3049 3049 3049 3050 3050 3051 3052 3051 3051 3050 3050 3050 3050 3050 3049 3050 3046 3044 3043 3040 3036 3042 3042 3038 3042 3044 3047 3049 3051 3054 3055 3059 3062 3063 3058 3067 3071 3075 3077 3077 3079 3080 3082 3083 3082
3043 3042 3042 3042 3043 3043 3045 3045 3045 3045 3045 3045 3045 3044 3045 3043 3045 3045 3041 3040 3038 3034 3031 3030 3031 3029 3031 3030 3035 3042 3045 3046 3049 3053 3055 3054 3060 3063 3065 3069 3072 3071 3072 3075 3079 3080 3079
3033 3034 3035 3035 3035 3036 3038 3037 3037 3039 3039 3038 3038 3038 3038 3038 3042 3039 3036 3037 3036 3033 3030 3028 3023 3021 3022 3021 3021 3032 3036 3043 3044 3046 3051 3052 3057 3058 3059 3061 3068 3067 3068 3072 3075 3077 3077
3024 3024 3026 3027 3027 3028 3029 3029 3030 3031 3032 3032 3032 3032 3032 3031 3036 3034 3034 3034 3033 3035 3036 3027 3022 3022 3020 3020 3021 3020 3025 3031 3034 3040 3047 3046 3050 3050 3053 3057 3062 3063 3064 3068 3071 3072 3072
3014 3014 3016 3017 3018 3019 3020 3021 3021 3023 3025 3025 3026 3026 3025 3027 3030 3028 3030 3031 3033 3039 3029 3022 3021 3020 3019 3018 3018 3017 3020 3023 3030 3036 3038 3044 3048 3048 3050 3054 3059 3061 3064 3066 3067 3067 3066
3004 3004 3005 3006 3007 3007 3009 3011 3012 3015 3016 3017 3018 3019 3019 3021 3026 3024 3027 3029 3035 3032 3024 3021 3019 3020 3019 3018 3017 3017 3020 3021 3025 3031 3031 3038 3040 3043 3047 3049 3055 3057 3060 3064 3064 3063 3057
2992 2994 2994 2995 2996 2997 3000 3002 3003 3006 3008 3009 3010 3010 3013 3016 3019 3021 3024 3027 3027 3022 3021 3020 3020 3020 3019 3018 3017 3017 3019 3020 3021 3025 3027 3032 3037 3036 3040 3043 3047 3049 3055 3057 3056 3055 3052
2983 2984 2986 2986 2987 2988 2990 2992 2994 2997 3000 3001 3002 3003 3006 3011 3014 3016 3020 3019 3018 3018 3020 3019 3020 3020 3018 3017 3017 3017 3019 3018 3019 3022 3027 3028 3030 3031 3033 3037 3043 3045 3047 3052 3053 3053 3053
2972 2974 2976 2977 2978 2979 2981 2983 2986 2989 2992 2994 2995 2995 2998 3005 3008 3012 3013 3010 3012 3015 3018 3020 3020 3020 3018 3016 3017 3017 3019 3020 3019 3019 3022 3025 3026 3026 3029 3034 3038 3040 3045 3049 3049 3048 3047
2962 2963 2965 2967 2969 2971 2973 2976 2979 2982 2985 2988 2987 2989 2993 3000 3003 3004 3000 3002 3007 3013 3016 3018 3017 3018 3019 3018 3018 3018 3019 3020 3018 3017 3019 3021 3023 3026 3027 3029 3031 3036 3037 3040 3041 3041 3039
2951 2953 2954 2956 2958 2961 2964 2967 2970 2975 2979 2980 2982 2984 2989 2995 2997 2993 2992 2996 3003 3010 3012 3014 3015 3015 3017 3017 3017 3018 3018 3018 3018 3018 3017 3019 3019 3022 3024 3026 3028 3031 3034 3037 3036 3035 3035
2940 2943 2944 2946 2948 2951 2954 2958 2962 2967 2971 2975 2976 2978 2984 2986 2985 2986 2988 2993 2998 3003 3007 3009 3011 3012 3013 3015 3017 3015 3016 3017 3017 3017 3016 3017 3019 3020 3023 3025 3024 3026 3028 3029 3030 3031 3029
2931 2932 2934 2936 2939 2942 2946 2949 2954 2960 2965 2969 2971 2973 2976 2976 2976 2981 2983 2987 2992 2997 3000 3003 3006 3007 3009 3012 3013 3012 3013 3014 3015 3016 3016 3016 3017 3018 3020 3021 3022 3023 3024 3026 3027 3027 3026
2921 2923 2925 2928 2931 2934 2937 2942 2946 2952 2958 2960 2963 2962 2965 2965 2970 2971 2977 2982 2987 2990 2994 2997 2999 3002 3006 3008 3008 3008 3008 3009 3011 3011 3013 3015 3015 3017 3017 3019 3019 3020 3020 3021 3022 3022 3021
2912 2914 2916 2918 2921 2924 2928 2932 2937 2943 2951 2951 2951 2953 2958 2959 2963 2965 2969 2975 2980 2985 2989 2992 2994 2997 3001 3003 3004 3004 3005 3006 3007 3008 3008 3009 3011 3013 3013 3015 3016 3014 3015 3016 3017 3016 3015
2900 2901 2904 2906 2910 2913 2917 2921 2926 2932 2939 2938 2941 2945 2953 2952 2957 2960 2963 2967 2973 2981 2984 2986 2991 2993 2996 2997 2998 2998 2999 3000 3001 3004 3006 3008 3009 3010 3011 3012 3012 3009 3008 3010 3011 3011 3010
2885 2886 2889 2893 2896 2899 2904 2909 2913 2920 2925 2928 2933 2939 2945 2943 2951 2954 2960 2963 2969 2973 2979 2982 2985 2988 2991 2991 2993 2993 2993 2994 2995 2997 3001 3003 3006 3008 3009 3011 3009 3001 3002 3005 3005 3005 3005
2875 2875 2877 2880 2884 2888 2892 2897 2902 2907 2913 2917 2924 2932 2936 2937 2945 2948 2955 2959 2965 2970 2972 2976 2980 2984 2985 2988 2990 2990 2991 2990 2990 2991 2994 2999 3003 3006 3006 3005 2999 2997 2999 3000 3000 2998 2998
2869 2868 2870 2872 2875 2878 2881 2885 2889 2895 2902 2909 2914 2923 2930 2932 2932 2945 2952 2954 2958 2962 2967 2969 2976 2977 2982 2984 2986 2986 2987 2987 2987 2987 2987 2993 2998 3003 3002 3002 2997 2993 2993 2994 2995 2992 2993
2860 2860 2861 2863 2865 2868 2870 2873 2877 2883 2891 2899 2904 2914 2922 2925 2928 2938 2941 2947 2953 2957 2960 2964 2970 2973 2976 2978 2981 2982 2983 2984 2985 2985 2985 2988 2993 2994 2998 2996 2989 2988 2990 2990 2992 2995 2989
2852 2852 2853 2854 2855 2858 2861 2864 2869 2874 2882 2889 2897 2905 2913 2918 2923 2929 2936 2940 2944 2949 2954 2958 2965 2967 2970 2973 2975 2976 2978 2980 2981 2983 2983 2984 2988 2990 2993 2993 2988 2984 2986 2989 2989 2985 2983
2842 2843 2843 2845 2846 2848 2851 2855 2861 2868 2875 2883 2889 2898 2908 2913 2917 2923 2930 2934 2937 2943 2950 2951 2957 2960 2964 2966 2968 2970 2972 2973 2975 2977 2979 2983 2982 2983 2984 2982 2982 2982 2985 2983 2981 2979 2979